星链-32887 (STARLINK-32887)

导读

STARLINK-32887是美国SpaceX星链星座的卫星,于2025年2月11日发射升空,隶属于Starlink低轨互联网卫星星座计划。星链系统旨在为全球提供全天候、低时延的高速互联网接入服务,该卫星承担星座组网运行任务,进一步扩充星链星座的全球服务覆盖能力。

Basic Information
目录编号:
62964
目录名称:
STARLINK-32887
国际标识:
2025-029S
轨道中心:
EARTH
卫星名称:
星链-32887
卫星全名:
星链-32887 (STARLINK-32887)
卫星状态:
在轨 (已飞行570 天)
发射日期:
2025-02-11 UTC
国别 :
美国 (US)
星等 :
--
Orbit Information
数据来源 国际轨道数据 AOE轨道数据
星历时间 2026-09-02T17:12:07+0800
1天前
查看轨道信息
2026-08-31T18:00:00+0800
3天前
查看轨道信息
半长轴 6840.857km 6840.757km
偏心率 0.0001229 0.0001657
轨道倾角 53.157° 53.156°
近地点辐角 89.010° 79.687°
升交点赤经 126.523° 135.719°
平近点角 271.105° 210.563°
近地点 461.879km 461.486km
远地点 463.561km 463.754km
周期 93.848分钟 93.846分钟
每日圈数 15.343945 15.344282
Detailed Information
固有亮度:
5
最大亮度:
2.5
卫星平台:
Starlink V1.0
覆盖范围:
全球
运营商:
太空探索技术公司
运营商所在国:
美国
制造商(研发单位):
太空探索技术公司
制造商所在国:
美国
使用方式:
暂无
Satellite Introduction
Starlink 计划是 SpaceX 推出的全球卫星互联网项目,通过发射低轨道卫星,为全球尤其是偏远地区提供高速、低延迟的互联网服务。自 2019 年起,Starlink 已部署数千颗卫星,旨在缩小全球数字鸿沟,推动互联网普及。该项目还为军事、航空等行业提供通信支持,带来广泛经济效益。
2D Orbit Map
3D Orbit Map
Orbit Altitude Analysis Chart
Orbit Inclination Analysis Chart
Orbit Comprehensive Analysis Chart
View Comprehensive Chart